{"data":{"norad_id":64323,"epoch":"2026-05-24T10:46:53.005440Z","epoch_age_seconds":115946,"freshness":"FRESH","line1":"1 64323U 25124G   26144.44922460  .00207425  00000+0  15762-2 0  9992","line2":"2 64323  42.9988 292.1809 0001659 267.8012  92.2665 15.70897202 54750","mean_motion":15.70897202,"eccentricity":0.0001659,"inclination_deg":42.9988,"raan_deg":292.1809,"arg_perigee_deg":267.8012,"mean_anomaly_deg":92.2665,"bstar":0.0015762,"rev_number":5475,"period_min":91.667360420953,"perigee_km":355.21432417204,"apogee_km":357.4488208444,"semimajor_km":6734.4685725082,"source":"CELESTRAK","updated_at":"2026-05-25T13:38:20.394595Z"}}